This demonstration page uses our WeatherBlox Daily Observations layout. Learn more.

Left ArrowRight Arrow

39.01783, -85.05884

Hourly Observations for September 24, 2022

Temp ( °F °C ) Dew Point ( °F °C ) Humidity (%) Winds ( mph kmh ) Pressure ( in mb ) Visibility ( mi km ) Precip ( " mm )
12:52 am 00:52 Cloudy 57 13.9 50 10 77 77 SSE 10 17 30.09 1019 10 16 0.00 0.00
1:52 am 01:52 Cloudy 57 13.9 50 10 77 77 S 6 9 30.08 1019 10 16 0.01 0.13
2:52 am 02:52 Cloudy 58 14.4 48 8.9 70 70 SSE 10 17 30.06 1018 10 16 0.00 0.00
3:52 am 03:52 Cloudy 58 14.4 47 8.3 67 67 SE 6 9 30.08 1019 10 16 0.00 0.00
4:52 am 04:52 Cloudy with Rain 55 12.8 53 11.7 93 93 NNW 6 9 30.11 1020 6 10 0.03 0.76
5:52 am 05:52 Cloudy with Light Rain 56 13.3 52 11.1 87 87 NE 5 7 30.09 1019 9 14 0.08 2.03
6:52 am 06:52 Cloudy with Light Rain 56 13.3 53 11.7 90 90 E 7 11 30.08 1019 7 11 0.02 0.51
7:52 am 07:52 Cloudy 55 12.8 52 11.1 89 89 E 7 11 30.07 1018 10 16 0.02 0.51
8:52 am 08:52 Mostly Cloudy 56 13.3 52 11.1 87 87 ESE 10 17 30.06 1018 10 16 0.00 0.00
9:52 am 09:52 Cloudy 57 13.9 52 11.1 83 83 SSE 12 19 30.06 1018 10 16 0.00 0.00
10:52 am 10:52 Cloudy 60 15.6 53 11.7 78 78 S 14 22 30.03 1017 10 16 0.00 0.00
11:52 am 11:52 Cloudy 63 17.2 53 11.7 70 70 SSE 14 22 29.99 1016 10 16 0.00 0.00
12:52 pm 12:52 Cloudy 66 18.9 54 12.2 65 65 S 12 19 29.97 1015 10 16 0.00 0.00
1:52 pm 13:52 Partly Cloudy 70 21.1 56 13.3 61 61 SSW 12 19 29.93 1014 10 16 0.00 0.00
2:52 pm 14:52 Partly Cloudy 72 22.2 55 12.8 55 55 SW 15 24 29.91 1013 10 16 0.00 0.00
3:52 pm 15:52 Partly Cloudy 73 22.8 56 13.3 55 55 S 14 22 29.88 1012 10 16 0.00 0.00
4:52 pm 16:52 Partly Cloudy 74 23.3 57 13.9 56 56 SSW 13 20 29.87 1011 10 16 0.00 0.00
5:52 pm 17:52 Mostly Sunny 74 23.3 58 14.4 57 57 SW 9 15 29.86 1011 10 16 0.00 0.00
6:52 pm 18:52 Sunny 72 22.2 58 14.4 61 61 SSW 8 13 29.85 1011 10 16 0.00 0.00
7:52 pm 19:52 Clear 68 20 59 15 73 73 S 9 15 29.85 1011 10 16 0.00 0.00
8:52 pm 20:52 Clear 65 18.3 59 15 81 81 SSW 8 13 29.86 1011 10 16 0.00 0.00
9:52 pm 21:52 Clear 65 18.3 59 15 81 81 SSW 8 13 29.86 1011 10 16 0.00 0.00
10:52 pm 22:52 Partly Cloudy 63 17.2 59 15 87 87 SSW 9 15 29.85 1011 10 16 0.00 0.00
11:52 pm 23:52 Clear 62 16.7 59 15 90 90 SSW 8 13 29.84 1010 10 16 0.00 0.00

Powered by AerisWeather